Volver al catálogo

SAR LUPE 1

ActivoMilitarPO
NORAD 29658·PAYLOAD·🇩🇪 Germany

Lanzado Dec 19, 2006 desde Plesetsk Cosmodrome

Loading…

Próximos Pases (próximas 24 horas)

TLE

EnvejeciendoSource: Mike McCants

Época: Sep 5, 2026, 19:14 UTC

1 29658U 06060A   26248.80197491 0.00000000  00000-0  00000-0 0    06
2 29658  98.1129 287.7795 0002000 290.5808  69.4190 15.27404806    07

Sigue SAR LUPE 1 en tiempo real con AllMySat

Download on the App Store